BEIDOU-3 IGSO-2 (C39)

Last updated on Jan. 22, 2021, 6:27 a.m. UTC

1 44337U 19035A   21021.46462360 -.00000063  00000-0  00000-0 0  9996
2 44337  55.0875 176.3225 0016549 184.0648  35.5465  1.00275311  5918
UTC
Height (km)
Latitude
Longitude
Inclination
Orbital Period
UTC large
Height (km)
Speed (km/s)
/
Latitude / Longitude
Inclination (degrees)
Orbital Period (minutes)
Azimuth
Elevation
Range (km)
Doppler Factor
iOS Compass Heading
iOS Angle

Next 30 passes for location: Hong Kong

Rise time Rise Azimuth (degrees) Set time Set Azimuth (degrees) Duration Max altitude (degrees)

No matching passes for this satellites